Location: Myra
(43.4160°N, 88.0960°W)
Time: 17:45:00
(UTC-05:00)

Daily predictions for brighter satellites

Satellite Brightness Start Highest point End
(mag) Time Altitude Azimuth Time Altitude Azimuth Time Altitude Azimuth
USA 267 4.5 19:02:15 10° NE 19:08:12 38° NNW 19:14:07 10° W
YAOGAN 1 4.0 19:07:44 10° S 19:11:52 44° W 19:16:02 10° NNW
SJ-6B 3.8 19:10:38 10° SE 19:14:05 28° ENE 19:17:28 10° N
Resurs 01 Rocket 3.1 19:15:34 10° ESE 19:18:32 18° ENE 19:21:30 10° NNE
SKYMED 2 4.0 19:14:44 10° N 19:19:04 68° WNW 19:23:22 10° SSW
Cosmos 1356 Rocket 4.0 19:15:04 10° N 19:19:05 37° ENE 19:23:06 10° SE
Cosmos 1606 Rocket 3.6 19:17:16 10° S 19:21:36 87° W 19:25:58 10° N
Cosmos 1953 Rocket 3.5 19:18:48 10° N 19:23:10 88° E 19:27:29 10° S
Thor Agena Rocket 3.6 19:19:03 10° NNE 19:24:15 59° ESE 19:29:21 10° S
H-2A R/B 3.1 19:22:28 10° SE 19:25:58 41° ENE 19:29:32 10° N
Cosmos 1656 Rocket 3.7 19:21:29 10° NNW 19:27:09 71° ENE 19:32:42 10° SSE
Cosmos 2184 Rocket 4.3 19:21:31 10° SSE 19:27:26 45° E 19:33:26 10° NNE
Cosmos 2058 Rocket 3.0 19:23:09 10° S 19:27:27 63° E 19:31:48 10° NNE
FENGYUN 3A 3.7 19:25:11 10° SSE 19:30:33 89° ENE 19:35:58 10° NNW
BREEZE-M DEB (TANK) 3.1 19:29:00 10° NW 19:31:14 21° N 19:32:50 11° ENE
NOAA 12 4.4 19:27:43 10° S 19:32:56 74° WSW 19:38:14 10° NNW
Milstar 3 Cent rocket 4.1 19:38:42 10° S 19:39:34 10° S 19:40:23 10° SSE
Meteor 2-13 Rocket 4.4 19:34:03 10° S 19:40:08 83° E 19:46:14 10° N
Meteor 2-5 Rocket 3.9 19:35:25 10° N 19:41:19 87° W 19:47:03 10° S
Meteor 1-22 Rocket 4.3 19:36:54 10° S 19:42:24 52° E 19:47:44 10° NNE
BREEZE-M (TANK) 4.5 19:25:41 10° WNW 19:43:53 71° SW 19:48:01 11° SE
Cosmos 1814 Rocket 4.5 19:38:59 10° SSW 19:44:06 65° WNW 19:49:14 10° NNE
Cosmos 1707 3.5 19:40:23 10° NNW 19:44:16 58° W 19:48:06 10° S
Cosmos 304 Rocket 3.7 19:39:42 10° SSW 19:44:28 77° ESE 19:49:18 10° NNE
COSMOS 2406 3.4 19:39:17 10° S 19:44:45 51° ESE 19:50:18 10° NE
Cosmos 1766 3.4 19:42:45 10° SSE 19:46:32 47° E 19:50:18 10° NNE
ISS -2.0 19:45:04 10° S 19:47:03 16° SE 19:47:03 16° SE
Cosmos 2327 Rocket 4.5 19:41:32 10° S 19:47:31 57° E 19:53:27 10° NNE
MOS 1-B Rocket 4.5 19:43:46 10° SE 19:49:16 37° ENE 19:54:24 10° N
Cosmos 1544 3.4 19:46:21 10° SSE 19:49:45 41° E 19:53:11 10° NNE
SL-08 ROCKET BODY 4.4 19:44:19 10° S 19:50:12 84° W 19:56:13 10° N
Cosmos 1378 4.1 19:48:07 10° NNW 19:51:48 50° W 19:55:27 10° S
Cosmos 1125 Rocket 3.7 19:47:06 10° NNW 19:52:17 52° ENE 19:57:04 12° SE
Cosmos 1356 4.3 19:51:54 10° N 19:55:03 30° ENE 19:56:11 25° ESE
BREEZE-M DEB (TANK) 4.0 19:42:43 10° SW 19:56:10 56° SSE 19:59:22 20° E
FengYun 1-2 T 4.3 19:50:38 10° SSE 19:56:14 87° WSW 20:01:50 10° NNW
Cosmos 372 Rocket 4.2 19:51:36 10° N 19:56:44 50° ENE 20:00:50 16° SE
In-Cosmos 22 4.2 19:51:25 10° N 19:57:07 67° ENE 20:02:50 10° SSE
Cosmos 1674 3.9 19:55:05 10° NNE 19:58:02 21° ENE 19:58:04 21° ENE
Cosmos 1758 4.2 19:59:36 22° SE 20:01:01 28° E 20:04:27 10° NNE
Envisat 3.5 19:57:59 17° SE 20:01:31 39° ENE 20:06:14 10° N
Elektron 1 4.2 19:58:16 10° NNW 20:01:37 44° NE 20:02:32 32° E
ALOS 3.7 19:58:33 10° SSW 20:02:55 40° W 20:07:19 10° NNW
ATLAS CENTAUR R/B 3.8 19:50:45 10° NW 20:05:20 68° SW 20:09:50 13° SSE
Cosmos 1939 Rocket 3.7 20:14:52 30° ENE 20:14:52 30° ENE 20:18:19 10° N
ATLAS 2AS CENTAUR R/B 3.8 20:08:22 10° NNW 20:15:43 36° NE 20:19:38 23° E
Cosmos 841 Rocket 4.5 20:14:38 10° SW 20:19:36 49° WNW 20:24:36 10° N
Cosmos 1805 3.1 20:16:02 10° S 20:19:54 69° E 20:23:48 10° NNE
NOSS 3-1 (A) 4.4 20:17:38 10° NW 20:25:14 67° WSW 20:33:23 11° SSE
CZ-2D R/B 3.3 20:23:20 17° S 20:26:13 74° WSW 20:30:03 10° NNW
Cosmos 1900 4.4 20:21:35 10° SSW 20:26:32 55° ESE 20:31:34 10° NE
Resurs 1-3 3.5 20:28:08 24° SSE 20:30:44 87° ENE 20:35:08 10° NNW
Cosmos 1076 Rocket 4.3 20:27:35 10° N 20:31:02 34° ENE 20:31:02 34° ENE
Cosmos 2278 4.2 20:26:38 10° NNW 20:31:56 39° ENE 20:33:05 35° E
Cosmos 2154 Rocket 3.9 20:26:24 10° S 20:32:35 77° E 20:38:52 10° N
Cosmos 540 Rocket 3.7 20:31:06 10° SSW 20:36:11 68° WNW 20:41:18 10° NNE
Cosmos 2341 Rocket 3.9 20:38:36 10° S 20:44:44 68° E 20:50:56 10° NNE
Cosmos 1953 2.3 20:53:14 83° NW 20:53:14 83° NW 20:57:13 10° N
Cosmos 1697 Rocket 3.5 20:49:06 10° N 20:54:09 34° NE 20:54:09 34° NE
Resurs 01 Rocket 2.5 20:51:54 21° SSW 20:54:39 48° W 20:58:57 10° NNW
FALCON 9 R/B 3.1 20:51:42 10° WSW 20:55:13 33° S 20:55:15 33° S
Cosmos 1656 3.9 20:49:51 10° NNW 20:55:21 48° ENE 20:55:33 48° ENE
Cosmos 1980 Rocket 3.6 20:51:05 10° N 20:55:07 23° NE 20:55:07 23° NE
GP-B 3.8 20:53:03 10° N 20:57:23 53° W 21:01:04 14° SSW
Nadezhda 3 Rocket 4.4 20:56:19 10° NNW 21:02:33 63° W 21:07:52 14° S
Meteor 2-21 4.3 21:06:16 56° SSE 21:07:31 71° E 21:13:37 10° NNE
Cosmos 2366 rocket 4.5 21:09:14 43° ENE 21:09:14 43° ENE 21:14:02 10° NNE
Spot 2 Rocket 4.3 21:05:05 22° SSW 21:08:01 47° W 21:12:53 10° NNW
Cosmos 2218 Rocket 4.1 21:12:20 55° ENE 21:12:20 55° ENE 21:17:40 10° NNE
Cosmos 2285 Rocket 3.9 21:06:53 10° S 21:13:16 74° ESE 21:19:42 10° NNE
Cosmos 292 Rocket 4.3 21:13:58 10° SW 21:18:45 58° WNW 21:23:34 10° NNE
Meteor 2-15 Rocket 4.3 21:15:50 10° N 21:21:51 78° ENE 21:21:51 78° ENE
SL-16 R/B 4.3 21:18:54 10° N 21:21:08 14° NNE 21:21:08 14° NNE
ARGOS 4.1 21:24:04 37° NNE 21:24:04 37° NNE 21:27:40 10° N
Okean 3 Rocket 4.4 21:20:19 10° NNW 21:24:21 48° W 21:24:21 48° W
NOAA 11 4.3 21:26:33 65° N 21:26:33 65° N 21:31:12 10° N
ERS-1 Rocket 3.9 21:32:02 39° N 21:32:02 39° N 21:35:15 10° N
SL-8 Rocket 4.0 21:35:30 71° SW 21:36:03 77° W 21:42:14 10° N
Cosmos 1727 Rocket 4.2 21:31:21 10° N 21:36:35 59° NNE 21:36:35 59° NNE
Cosmos 2369 4.1 21:36:01 10° NNW 21:41:11 59° W 21:41:11 59° W
H-2A R/B 3.8 21:59:17 24° N 21:59:17 24° N 22:01:20 10° N
BREEZE-M DEB (TANK) 4.0 21:49:49 10° WNW 22:02:49 59° N 22:02:49 59° N
Terra 4.5 22:08:21 12° N 22:08:21 12° N 22:08:44 10° N
ATLAS 2AS CENTAUR R/B 3.0 21:59:26 10° NW 22:07:05 70° WSW 22:07:05 70° WSW
Cosmos 2322 Rocket 4.2 22:24:12 10° NNW 22:26:13 21° N 22:26:13 21° N
USA 267 4.4 22:32:30 34° N 22:32:30 34° N 22:37:46 10° NW
Cosmos 1980 Rocket 4.0 22:34:22 10° NNW 22:36:53 27° NW 22:36:53 27° NW
